Retour au catalogue

SL-12 R/B(2)

ActifHEO
NORAD 25660·ROCKET BODY·🇷🇺 Russia

Lancé Mar 21, 1999 depuis Baikonur Cosmodrome

Loading…

Prochains Passages (prochaines 24 heures)

TLE

FraisSource: Space-Track

Époque: Sep 14, 2026, 14:13 UTC

1 25660U 99013D   26257.59243442 -.00000129  00000-0  00000-0 0  9999
2 25660  13.1212  93.9673 4596390 104.2493  38.1511  1.74923396175665

Suivez SL-12 R/B(2) en temps réel avec AllMySat

Download on the App Store